This is the latest recevied weather packets stored in our database for station/object W0WC. If no packets are shown the sender has not sent any weather packets the latest 10 day(s).
| Time | Temp. | Humidity | Pressure | Rain* | Wind** | Luminosity | Snow |
|---|---|---|---|---|---|---|---|
| 1777973389 | 16.67° C | 91% | 1005.2 hPa | 0 mm | - | 0 W/m² | - |
| 1777973086 | 16.67° C | 91% | 1005.3 hPa | 0 mm | - | 0 W/m² | - |
| 1777972784 | 16.67° C | 91% | 1005 hPa | 0 mm | - | 0 W/m² | - |
| 1777972481 | 16.67° C | 92% | 1004.6 hPa | 0 mm | - | 0 W/m² | - |
| 1777972179 | 16.67° C | 92% | 1004.5 hPa | 0 mm | - | 0 W/m² | - |
| 1777971877 | 16.67° C | 91% | 1004.6 hPa | 0 mm | - | 0 W/m² | - |
| 1777971574 | 16.67° C | 92% | 1005 hPa | 1.27 mm | - | 0 W/m² | - |
| 1777971272 | 16.67° C | 92% | 1005.1 hPa | 3.05 mm | - | 0 W/m² | - |
| 1777970970 | 16.67° C | 92% | 1005.3 hPa | 1.78 mm | - | 0 W/m² | - |
| 1777970668 | 16.67° C | 92% | 1005.4 hPa | 1.78 mm | - | 0 W/m² | - |
| 1777970366 | 16.67° C | 92% | 1005.3 hPa | 0 mm | - | 0 W/m² | - |
| 1777970063 | 16.67° C | 92% | 1005.2 hPa | 0 mm | - | 0 W/m² | - |
| 1777969759 | 16.67° C | 92% | 1004.8 hPa | 0 mm | - | 0 W/m² | - |
| 1777969455 | 16.67° C | 92% | 1004.4 hPa | 0 mm | - | 0 W/m² | - |
| 1777969152 | 16.67° C | 92% | 1004.5 hPa | 0 mm | - | 0 W/m² | - |
| 1777968849 | 16.67° C | 93% | 1004.4 hPa | 0 mm | - | 0 W/m² | - |
| 1777968545 | 16.67° C | 94% | 1004.4 hPa | 0 mm | - | 0 W/m² | - |
| 1777968241 | 16.67° C | 94% | 1004.3 hPa | 0 mm | - | 0 W/m² | - |
| 1777967937 | 16.67° C | 94% | 1003.6 hPa | 0 mm | - | 0 W/m² | - |
| 1777967634 | 16.67° C | 94% | 1003.6 hPa | 1.27 mm | - | 0 W/m² | - |
| 1777967331 | 16.67° C | 95% | 1004.1 hPa | 1.27 mm | - | 0 W/m² | - |
| 1777967028 | 16.67° C | 95% | 1004 hPa | 1.27 mm | - | 0 W/m² | - |
| 1777966725 | 16.67° C | 95% | 1004.7 hPa | 0 mm | - | 0 W/m² | - |
| 1777966423 | 16.67° C | 95% | 1004.8 hPa | 0 mm | - | 0 W/m² | - |
| 1777966120 | 16.67° C | 95% | 1005.1 hPa | 0 mm | - | 0 W/m² | - |
* Rain latest hour (hover to see other rain measurements)
** Current wind speed in m/s (hover to see current wind gust speed)